[[{"header":{"parameterUnit":"m.s-1","parameterCategory":1,"la1":30.2992,"la2":30.254,"lo1":-89.0895,"lo2":-89.0443,"dy":0.0025,"dx":0.0025,"nx":19,"ny":19,"refTime":"2026-04-20T21:00:00:Z","depth":0,"parameterNumber":2,"parameterNumberName":"U-component_of_WINDS"},"data":[0,0,0,-4.743,-4.7435,-4.7659,-4.766,-4.7947,-4.795,0,0,0,0,0,0,0,0,0,0,0,-4.7366,-4.7368,-4.743,-4.7435,-4.7659,-4.766,-4.7947,-4.795,0,0,0,0,0,0,0,0,0,0,0,-4.7365,-4.7367,-4.737,-4.7436,-4.7659,-4.766,-4.7946,-4.7777,0,0,0,0,0,0,0,0,0,0,-4.7559,-4.7502,-4.7367,-4.737,-4.7438,-4.7659,-4.766,-4.7768,-4.7787,-4.7847,0,-4.7902,0,-4.7931,-4.7969,-4.797,0,0,0,-4.7434,-4.7487,-4.7545,-4.737,-4.744,-4.7658,-4.7558,-4.7779,-4.78,-4.7872,-4.7906,-4.7917,-4.7935,-4.7971,-4.7973,-4.8324,-4.8326,0,0,-4.7421,-4.7407,-4.753,-4.7559,-4.7526,-4.755,-4.7565,-4.7792,-4.7827,-4.7907,-4.7923,-4.794,-4.7973,-4.7975,-4.8323,-4.8325,0,0,0,-4.7387,-4.7399,-4.7452,-4.7547,-4.7588,-4.7557,-4.7573,-4.7817,-4.7836,-4.7926,-4.7943,-4.7975,-4.7979,-4.8321,-4.8323,-4.8392,0,0,0,-4.7379,-4.7379,-4.7446,-4.744,-4.7583,-4.7706,-4.7594,-4.782,-4.7846,-4.7942,-4.7975,-4.7981,-4.8319,-4.8322,-4.8386,-4.8426,0,0,0,-4.7351,-4.7375,-4.7409,-4.7439,-4.7535,-4.7702,-4.7734,-4.7826,-4.7857,-4.7971,-4.7982,-4.8318,-4.8322,-4.8381,-4.8418,-4.8511,0,0,0,-4.7316,-4.7469,-4.7409,-4.7587,-4.7533,-4.7745,-4.7732,-4.7891,-4.7998,-4.7976,-4.8319,-4.8323,-4.838,-4.8412,-4.8505,-4.8585,-4.8618,0,0,-4.75,-4.749,-4.7596,-4.755,-4.7768,-4.7712,-4.7941,-4.8051,-4.8076,-4.824,-4.8248,-4.8388,-4.8417,-4.851,-4.8814,-4.884,0,0,0,-4.7649,-4.7724,-4.7786,-4.7886,-4.7975,-4.8053,-4.813,-4.8171,-4.8311,-4.8158,-4.8451,-4.8468,-4.8523,-4.8561,-4.8583,-4.8629,-4.8342,-4.8341,-4.8341,-4.7888,-4.7911,-4.8085,-4.8134,-4.8232,-4.831,-4.839,-4.8458,-4.8454,-4.8522,-4.8569,-4.8751,-4.8796,-4.8812,-4.886,-4.8617,-4.8617,-4.8618,-4.8618,-4.8157,-4.8265,-4.8255,-4.8419,-4.8442,-4.8581,-4.8662,-4.8653,-4.8784,-4.8718,-4.8768,-4.8689,-4.884,-4.8883,-4.8623,-4.8622,-4.8622,-4.8621,-4.8621,-4.8312,-4.8367,-4.8415,-4.8561,-4.8671,-4.8716,-4.8842,-4.8859,-4.8876,-4.8926,-4.8975,-4.8974,-4.8971,-4.8949,-4.895,-4.895,-4.8951,-4.8951,-4.8952,-4.8452,-4.8504,-4.8607,-4.8714,-4.8779,-4.8868,-4.8948,-4.9012,-4.9088,-4.909,-4.9091,-4.9076,-4.8853,-4.8793,-4.8961,-4.896,-4.8958,-4.8958,-4.8957,-4.8708,-4.8653,-4.8813,-4.8878,-4.9003,-4.9109,-4.9131,-4.9261,-4.9317,-4.9378,-4.9354,-4.9188,-4.9178,-4.916,-4.9111,-4.9351,-4.9351,-4.9351,-4.9351,-4.8835,-4.8833,-4.8999,-4.9102,-4.9205,-4.924,-4.9418,-4.9481,-4.9538,-4.9574,-4.9543,-4.9481,-4.9462,-4.9463,-4.9439,-4.9393,-4.97,-4.97,-4.9701,-4.8992,-4.9,-4.9148,-4.9203,-4.9302,-4.9385,-4.9552,-4.9669,-4.9723,-4.9715,-4.9601,-4.9586,-4.9486,-4.9453,-4.9437,-4.94,-4.9316,0,0]},{"header":{"parameterUnit":"m.s-1","parameterCategory":1,"la1":30.2992,"la2":30.254,"lo1":-89.0895,"lo2":-89.0443,"dy":0.0025,"dx":0.0025,"nx":19,"ny":19,"refTime":"2026-04-20T21:00:00:Z","depth":0,"parameterNumber":3,"parameterNumberName":"V-component_of_WINDS"},"data":[0,0,0,3.7542,3.7543,3.7564,3.7564,3.7626,3.7627,0,0,0,0,0,0,0,0,0,0,0,3.7557,3.7558,3.7542,3.7543,3.7564,3.7564,3.7626,3.7627,0,0,0,0,0,0,0,0,0,0,0,3.7556,3.7558,3.7559,3.7543,3.7564,3.7564,3.7625,3.7597,0,0,0,0,0,0,0,0,0,0,3.7571,3.7605,3.7557,3.7559,3.7544,3.7564,3.7564,3.7595,3.7599,3.7631,0,3.7665,0,3.7647,3.7633,3.7633,0,0,0,3.7528,3.7602,3.7589,3.7559,3.7544,3.7564,3.755,3.7597,3.7601,3.7637,3.7666,3.7667,3.7648,3.7634,3.7634,3.7872,3.7874,0,0,3.7526,3.7572,3.7586,3.7593,3.7591,3.755,3.7551,3.7599,3.7634,3.7666,3.7668,3.7649,3.7634,3.7635,3.787,3.7872,0,0,0,3.7534,3.7572,3.7556,3.7591,3.7592,3.7551,3.7552,3.7632,3.7623,3.7668,3.765,3.7635,3.7636,3.7868,3.7871,3.8005,0,0,0,3.7532,3.7576,3.7557,3.7585,3.7592,3.7612,3.7585,3.762,3.7624,3.765,3.7635,3.7637,3.7866,3.787,3.7997,3.806,0,0,0,3.7548,3.7577,3.7588,3.7587,3.7598,3.761,3.7604,3.762,3.7614,3.7633,3.7637,3.7864,3.7869,3.7989,3.8048,3.8135,0,0,0,3.7579,3.7707,3.7591,3.7727,3.7598,3.7694,3.7603,3.7672,3.7705,3.7635,3.7866,3.7871,3.7987,3.804,3.8127,3.8214,3.8256,0,0,3.7766,3.7731,3.7808,3.7704,3.7832,3.7687,3.7834,3.7822,3.7783,3.7845,3.785,3.7999,3.8047,3.8133,3.8474,3.8507,0,0,0,3.7883,3.7938,3.7962,3.7996,3.799,3.7989,3.795,3.7945,3.7995,3.7824,3.8054,3.8081,3.8129,3.8169,3.8197,3.8235,3.7891,3.7891,3.7891,3.8211,3.8154,3.8277,3.8223,3.8257,3.8215,3.8237,3.8224,3.8157,3.8213,3.823,3.8444,3.8492,3.8512,3.8553,3.8273,3.8274,3.8274,3.8274,3.8478,3.8547,3.8455,3.8541,3.8481,3.8552,3.8518,3.8468,3.8526,3.8426,3.8466,3.8359,3.855,3.8583,3.8284,3.8282,3.8281,3.828,3.828,3.8685,3.8708,3.8701,3.8744,3.8784,3.8725,3.8785,3.8729,3.8676,3.8715,3.8727,3.8724,3.8713,3.8725,3.8726,3.8727,3.8727,3.8728,3.8728,3.8901,3.8889,3.8946,3.8951,3.8966,3.8978,3.8939,3.8951,3.8951,3.8905,3.8904,3.8831,3.858,3.8517,3.874,3.8738,3.8736,3.8735,3.8734,3.9189,3.9115,3.9203,3.9218,3.922,3.9263,3.9191,3.9222,3.9225,3.9256,3.9176,3.9,3.896,3.8937,3.8884,3.9188,3.9188,3.9188,3.9188,3.9362,3.9337,3.9414,3.9441,3.9461,3.9405,3.9507,3.9479,3.9439,3.9437,3.9385,3.9312,3.9291,3.9263,3.9233,3.9183,3.9556,3.9556,3.9557,3.9535,3.9509,3.9606,3.9565,3.9563,3.9563,3.9656,3.9692,3.9631,3.957,3.9434,3.9418,3.9298,3.9263,3.9196,3.9152,3.9058,0,0]}]]